Stations météo

réclame
Mon MeteoGroup
Finisterre, Espagne (8040): Température de l'air & dewpoint: 15.01.2019 17:00:00 - 21.01.2019 17:00:00 (CET)Finisterre, Espagne (8040): Vitesse du vent & gusts: 15.01.2019 17:00:00 - 21.01.2019 17:00:00 (CET)Finisterre, Espagne (8040): Direction du vent: 15.01.2019 17:00:00 - 21.01.2019 17:00:00 (CET)Finisterre, Espagne (8040): reduced air pressure: 15.01.2019 17:00:00 - 21.01.2019 17:00:00 (CET)Finisterre, Espagne (8040): visibility: 15.01.2019 17:00:00 - 21.01.2019 17:00:00 (CET)Finisterre, Espagne (8040): Ensoleillement: 15.01.2019 17:00:00 - 21.01.2019 17:00:00 (CET)Finisterre, Espagne (8040): Quantités de précipitations: 15.01.2019 17:00:00 - 21.01.2019 17:00:00 (CET)
Date & Time tt [°C] td [°C] ff [km/h] ff [knt] fx [km/h] fx [knt] dd ppp [hPa] vv [km] sd [min] rr [mm]
21.01.2019 17:00:00 - - - - - - - - - - -
21.01.2019 16:00:00 10,6 6,4 22 12 35 19 N 1025,4 12 37 0,0
21.01.2019 15:00:00 9,9 6,2 18 10 28 15 N 1025,9 12 0 0,0
21.01.2019 14:00:00 10,0 6,5 16 9 26 14 NNE 1026,4 9 2 0,0
21.01.2019 13:00:00 10,0 6,7 18 10 26 14 NNE 1027,0 11 26 -
21.01.2019 12:00:00 9,4 6,7 14 8 25 13 NE 1027,5 17 8 0,0
21.01.2019 11:00:00 9,2 6,2 17 9 28 15 NE 1027,0 19 37 0,0
21.01.2019 10:00:00 8,9 6,2 20 11 34 18 NE 1026,6 20 24 0,0
21.01.2019 09:00:00 8,3 5,8 26 14 34 19 NE 1026,2 20 0 0,0
21.01.2019 08:00:00 8,1 6,1 19 10 32 17 ENE 1026,1 19 0 0,0
21.01.2019 07:00:00 8,4 6,4 24 13 35 19 NE 1025,8 16 0 -
21.01.2019 06:00:00 8,6 6,7 23 12 41 22 NE 1025,7 17 0 0,4
21.01.2019 05:00:00 8,8 6,4 31 17 42 23 NE 1025,4 9 0 0,0
21.01.2019 04:00:00 8,5 6,2 30 16 40 22 NNE 1025,4 15 0 0,0
21.01.2019 03:00:00 8,5 6,4 29 15 38 20 NE 1025,5 14 0 0,2
21.01.2019 02:00:00 8,9 6,4 28 15 44 24 NNE 1025,8 11 0 0,0
21.01.2019 01:00:00 9,1 6,4 24 13 47 26 NNE 1025,8 10 0 -
21.01.2019 00:00:00 9,4 6,5 33 18 54 29 NNE 1025,2 10 0 0,0
20.01.2019 23:00:00 9,6 6,7 32 18 57 31 NNE 1024,9 15 0 0,0
20.01.2019 22:00:00 9,5 6,7 30 16 50 27 NNE 1024,6 10 0 0,0
20.01.2019 21:00:00 9,5 6,7 30 16 51 28 NNE 1024,4 11 0 0,0
20.01.2019 20:00:00 9,5 6,7 35 19 60 32 NNE 1023,9 12 0 0,2
20.01.2019 19:00:00 9,6 7,0 31 17 57 31 NNE 1023,3 11 0 -
20.01.2019 18:00:00 9,3 7,3 27 15 54 29 NNE 1022,9 11 31 0,2
20.01.2019 17:00:00 10,1 7,7 35 19 67 36 NNE 1022,1 10 44 0,0
20.01.2019 16:00:00 9,9 7,6 39 21 73 39 N 1021,4 12 42 0,2
20.01.2019 15:00:00 10,2 7,8 37 20 74 40 N 1021,5 14 38 0,0
20.01.2019 14:00:00 10,1 7,6 40 21 68 37 N 1021,4 16 29 0,0
20.01.2019 13:00:00 10,1 7,7 42 23 69 37 N 1021,6 13 22 -
20.01.2019 12:00:00 9,8 7,6 40 22 73 40 N 1021,7 13 12 0,0
20.01.2019 11:00:00 9,5 7,3 42 23 82 44 N 1020,2 15 11 1,0
20.01.2019 10:00:00 9,8 7,0 40 22 67 36 N 1019,6 13 2 0,0
20.01.2019 09:00:00 9,8 7,4 37 20 64 34 N 1018,8 13 0 0,0
20.01.2019 08:00:00 9,7 7,3 40 22 66 35 N 1018,0 9 0 0,0
20.01.2019 07:00:00 9,9 7,3 36 19 61 33 N 1017,7 13 0 -
20.01.2019 06:00:00 9,8 7,3 36 19 58 31 N 1017,2 11 0 0,0
20.01.2019 05:00:00 9,1 6,4 37 20 66 36 N 1017,5 14 0 0,0
20.01.2019 04:00:00 9,6 6,1 42 23 65 35 N 1017,0 18 0 0,0
20.01.2019 03:00:00 9,5 7,0 40 22 71 38 N 1016,3 14 0 0,0
20.01.2019 02:00:00 9,5 7,0 43 23 70 38 N 1015,7 13 0 0,0
20.01.2019 01:00:00 9,9 5,3 37 20 66 35 N 1015,4 15 0 -
20.01.2019 00:00:00 9,5 7,3 35 19 75 41 NNE 1014,5 12 0 0,0
19.01.2019 23:00:00 9,6 7,7 44 24 76 41 N 1012,9 12 0 0,0
19.01.2019 22:00:00 10,1 8,4 40 22 74 40 N 1012,1 12 0 0,0
19.01.2019 21:00:00 9,7 8,5 41 22 74 40 NNE 1011,0 12 0 0,0
19.01.2019 20:00:00 10,0 8,4 46 25 86 47 NNE 1009,0 13 0 0,0
19.01.2019 19:00:00 10,0 9,4 53 29 91 49 NNE 1007,0 11 0 -
19.01.2019 18:00:00 11,0 10,4 43 23 63 34 N 1006,0 9 0 0,0
19.01.2019 17:00:00 12,0 11,3 15 8 47 25 NNW 1005,6 0,8 0 0,0
19.01.2019 16:00:00 12,2 11,6 19 11 60 32 NW 1005,3 0,2 0 0,0
19.01.2019 15:00:00 12,3 11,7 36 19 69 37 NW 1005,0 0,1 0 0,2
19.01.2019 14:00:00 12,2 11,6 41 22 58 32 WNW 1005,5 0,1 0 2,2
19.01.2019 13:00:00 12,5 11,9 31 17 61 33 WSW 1007,4 0,8 0 -
19.01.2019 12:00:00 12,3 11,7 47 25 61 33 W 1008,4 0,8 0 0,4
19.01.2019 11:00:00 12,3 11,7 42 23 59 32 WSW 1008,6 0,1 0 0,2
19.01.2019 10:00:00 12,3 11,7 44 24 71 38 W 1009,1 0,1 0 0,2
19.01.2019 09:00:00 12,2 11,4 42 23 78 42 W 1009,2 0,2 0 3,0
19.01.2019 08:00:00 10,5 9,7 51 27 78 42 SSW 1009,8 0,1 0 4,8
19.01.2019 07:00:00 10,4 9,7 49 27 64 34 SSW 1010,8 0,2 0 -
19.01.2019 06:00:00 10,0 9,0 45 24 56 30 SW 1012,2 4,3 0 1,6
19.01.2019 05:00:00 9,8 9,0 37 20 46 25 SW 1013,5 9 0 1,0
19.01.2019 04:00:00 9,9 8,9 32 17 42 23 WSW 1014,8 8 0 0,2
19.01.2019 03:00:00 10,5 9,7 27 15 42 23 WSW 1015,3 20 0 0,0
19.01.2019 02:00:00 10,4 9,7 32 18 45 24 SW 1016,2 13 0 0,0
19.01.2019 01:00:00 10,3 9,6 32 17 42 23 SW 1016,8 13 0 -
19.01.2019 00:00:00 10,3 9,6 31 17 40 21 WSW 1017,1 20 0 0,0
18.01.2019 23:00:00 10,2 9,4 31 17 40 22 SW 1017,5 16 0 0,0
18.01.2019 22:00:00 10,1 9,2 24 13 32 17 SW 1017,3 9 0 0,0
18.01.2019 21:00:00 9,8 8,9 17 9 31 17 WSW 1017,7 14 0 0,0
18.01.2019 20:00:00 9,4 8,7 20 11 39 21 WNW 1017,7 11 0 1,4
18.01.2019 19:00:00 9,8 9,0 30 16 45 24 SW 1017,2 0,5 0 -
18.01.2019 18:00:00 9,9 9,2 34 18 47 25 SW 1016,9 1,0 0 0,6
18.01.2019 17:00:00 9,9 8,9 30 16 43 23 SW 1017,3 0,8 0 0,8
18.01.2019 16:00:00 9,7 8,8 28 15 39 21 SW 1017,6 6 0 0,2
18.01.2019 15:00:00 9,8 8,9 31 17 45 25 SW 1017,9 15 0 0,0
18.01.2019 14:00:00 9,5 8,5 32 17 44 24 SSW 1018,2 0,3 0 0,2
18.01.2019 13:00:00 8,9 7,8 31 17 41 22 SSW 1019,1 0,3 0 -
18.01.2019 12:00:00 8,9 7,8 29 16 42 23 SSW 1019,8 6 0 0,8
18.01.2019 11:00:00 8,6 7,4 31 17 41 22 SW 1019,6 11 0 0,8
18.01.2019 10:00:00 8,2 7,0 33 18 43 23 SW 1019,3 14 0 1,2
18.01.2019 09:00:00 8,1 6,7 23 12 33 18 WSW 1019,7 6 0 1,6
18.01.2019 08:00:00 8,0 6,7 23 13 41 22 SW 1020,1 6 0 1,6
18.01.2019 07:00:00 8,1 5,9 18 10 28 15 WSW 1020,1 15 0 -
18.01.2019 06:00:00 8,2 5,6 16 9 26 14 WSW 1020,6 13 0 0,2
18.01.2019 05:00:00 8,2 5,6 10 6 18 10 S 1021,3 12 0 0,0
18.01.2019 04:00:00 8,3 5,6 10 5 19 10 S 1021,9 11 0 0,0
18.01.2019 03:00:00 8,2 5,5 10 5 16 9 S 1022,4 10 0 0,0
18.01.2019 02:00:00 7,9 4,5 6 4 10 5 SSW 1022,7 10 0 0,0
18.01.2019 01:00:00 8,6 4,8 5 3 15 8 SW 1023,3 12 0 -
18.01.2019 00:00:00 8,6 3,8 6 3 16 9 N 1023,6 11 0 0,0
17.01.2019 23:00:00 8,4 3,8 11 6 20 11 N 1023,8 18 0 0,0
17.01.2019 22:00:00 8,1 4,1 13 7 19 11 N 1023,6 8 0 0,0
17.01.2019 21:00:00 8,2 4,3 14 8 23 12 N 1023,7 12 0 0,0
17.01.2019 20:00:00 8,3 4,1 18 10 34 18 NNE 1023,5 11 0 0,0
17.01.2019 19:00:00 8,9 4,6 19 10 37 20 N 1023,6 13 3 -
17.01.2019 18:00:00 9,3 5,5 19 10 36 19 N 1023,2 12 49 0,0
17.01.2019 17:00:00 9,8 4,6 18 10 39 21 N 1023,0 12 58 0,0
17.01.2019 16:00:00 9,3 4,3 22 12 35 19 N 1022,7 17 53 0,0
17.01.2019 15:00:00 9,7 5,1 19 10 33 18 NNE 1022,7 13 45 0,0
17.01.2019 14:00:00 9,1 5,9 14 8 32 17 NNE 1023,3 7 37 0,4
17.01.2019 13:00:00 8,3 5,5 20 11 36 19 N 1023,8 9 43 -
17.01.2019 12:00:00 9,3 5,1 18 10 37 20 NNE 1023,9 20 40 0,0
17.01.2019 11:00:00 8,9 5,5 23 12 35 19 NNE 1023,5 12 18 0,2
17.01.2019 10:00:00 8,4 4,6 26 14 34 19 NNE 1023,1 15 24 0,0
17.01.2019 09:00:00 8,0 4,3 19 10 43 23 NNE 1022,6 12 0 0,0
17.01.2019 08:00:00 8,3 3,4 25 13 48 26 N 1022,3 18 0 0,0
17.01.2019 07:00:00 8,8 4,8 31 17 50 27 N 1021,6 14 0 -
17.01.2019 06:00:00 8,3 3,8 24 13 46 25 NNE 1021,8 15 0 0,0
17.01.2019 05:00:00 8,4 4,3 27 15 50 27 N 1021,7 15 0 0,0
17.01.2019 04:00:00 8,8 2,3 28 15 45 24 N 1021,5 17 0 0,0
17.01.2019 03:00:00 8,6 4,6 24 13 49 26 N 1021,3 9 0 0,0
17.01.2019 02:00:00 9,0 4,6 30 16 47 26 N 1021,3 16 0 0,0
17.01.2019 01:00:00 8,9 4,3 32 17 47 26 NNE 1021,2 14 0 -
17.01.2019 00:00:00 9,0 4,3 27 15 47 26 N 1020,9 17 0 0,0
16.01.2019 23:00:00 8,7 5,6 27 14 46 25 NNE 1020,6 13 0 0,0
16.01.2019 22:00:00 8,8 5,9 30 16 56 30 NNE 1020,3 13 0 0,0
16.01.2019 21:00:00 9,2 6,1 32 18 56 30 N 1019,7 16 0 0,0
16.01.2019 20:00:00 9,3 6,7 30 16 54 29 N 1019,3 18 0 0,0
16.01.2019 19:00:00 8,6 7,0 34 18 64 35 N 1018,5 20 0 -
16.01.2019 18:00:00 8,5 7,6 34 18 57 31 N 1018,1 6 0 1,0
16.01.2019 17:00:00 9,5 8,4 19 10 43 23 NNW 1017,6 0,9 0 0,2
16.01.2019 16:00:00 9,9 8,5 16 9 35 19 NW 1017,5 0,2 0 0,2
16.01.2019 15:00:00 10,8 7,4 15 8 26 14 NW 1017,3 17 27 0,0
16.01.2019 14:00:00 11,4 7,6 10 5 17 9 NW 1017,6 18 59 0,0
16.01.2019 13:00:00 10,5 7,8 9 5 22 12 NW 1018,1 16 49 -
16.01.2019 12:00:00 9,7 7,7 10 5 29 16 NNW 1018,6 20 0 0,0
16.01.2019 11:00:00 9,3 8,3 12 6 29 15 NW 1018,4 18 0 0,0
16.01.2019 10:00:00 9,0 8,1 14 8 29 16 N 1017,8 10 0 0,8
16.01.2019 09:00:00 9,2 8,1 8 5 32 18 NNW 1017,6 0,2 0 0,0
16.01.2019 08:00:00 10,0 8,1 16 9 35 19 WNW 1017,2 15 0 0,0
16.01.2019 07:00:00 9,5 8,0 8 4 21 11 N 1016,9 18 0 -
16.01.2019 06:00:00 9,6 8,3 6 4 23 12 WNW 1017,3 12 0 0,0
16.01.2019 05:00:00 9,6 7,8 12 6 32 17 WNW 1017,7 14 0 0,0
16.01.2019 04:00:00 10,3 7,0 17 9 28 15 W 1017,7 17 0 0,0
16.01.2019 03:00:00 10,3 7,1 21 11 34 18 W 1017,6 14 0 0,0
16.01.2019 02:00:00 10,4 8,0 19 11 34 18 W 1017,8 13 0 0,0
16.01.2019 01:00:00 10,2 7,6 26 14 36 19 SW 1017,9 15 0 -
16.01.2019 00:00:00 10,5 8,3 26 14 36 19 SSW 1018,0 14 0 0,0
15.01.2019 23:00:00 10,3 7,8 18 10 35 19 SSW 1018,3 14 0 0,0
15.01.2019 22:00:00 10,2 7,6 22 12 43 23 SSW 1018,6 15 0 0,0
15.01.2019 21:00:00 10,2 7,8 22 12 41 22 SSW 1018,4 16 0 0,0
15.01.2019 20:00:00 10,4 8,4 22 12 36 19 SSW 1018,3 14 0 0,0
15.01.2019 19:00:00 10,4 8,7 21 11 32 17 S 1018,2 4,1 0 -
15.01.2019 18:00:00 10,7 7,6 17 9 32 17 S 1018,1 7 47 0,0
15.01.2019 17:00:00 12,2 7,6 19 10 29 16 S 1018,1 12 55 0,0

tt = Température de l'air
td = dewpoint
ff = Vitesse du vent
fx = gusts
dd = Direction du vent
ppp = reduced air pressure
vv = visibility
sd = Ensoleillement
rr = Quantités de précipitations

stations d'obs. à proximité